Simultaneous Nadir Overpasses (SNOs) Predictions

Prediction of SNOs between METOP-C and LANDSAT-8 Satellite Orbit:

Table of predicted SNOs for the next 14.0 days since TLE Epoch: 9/23/2023
Index Date (METOP-C) Time (METOP-C) Lat,Lon (METOP-C) SZA (METOP-C ) Date (LANDSAT-8) Time (LANDSAT-8) Lat,Lon (LANDSAT-8) SZA (LANDSAT-8 ) Distance(km) Time Diff (sec)
1 09/23/2023 19:45:55 81.21, -75.38 83.76 09/23/2023 19:46:52 81.21, -75.32 83.79 1.05 57
2 09/23/2023 20:36:33 -81.23, 92.74 96.13 09/23/2023 20:36:18 -81.23, 92.61 96.16 2.25 15
3 09/26/2023 15:20:12 81.21, -8.81 84.89 09/26/2023 15:21:09 81.21, -8.92 84.90 1.87 57
4 09/26/2023 16:10:51 -81.23, 158.99 95.04 09/26/2023 16:10:35 -81.23, 159.04 95.04 0.90 16
5 09/29/2023 10:54:29 81.21, 57.67 86.01 09/29/2023 10:55:25 81.21, 57.60 86.03 1.17 56
6 09/29/2023 11:45:08 -81.23,-134.46 93.91 09/29/2023 11:44:51 -81.23,-134.41 93.91 1.05 17
7 10/02/2023 06:28:47 81.20, 123.68 87.07 10/02/2023 06:29:41 81.20, 123.86 87.12 3.22 54
8 10/02/2023 07:19:24 -81.23, -68.01 92.80 10/02/2023 07:19:06 -81.23, -68.13 92.82 2.21 18
9 10/05/2023 02:03:01 81.22,-169.26 88.25 10/05/2023 02:03:54 81.22,-169.39 88.27 2.17 53



Historial Predications of SNOs between METOP-C and LANDSAT-8
